Time,TemperatureF,DewpointF,PressureIn,WindDirection,WindDirectionDegrees,WindSpeedMPH,WindSpeedGustMPH,Humidity,HourlyPrecipIn,Conditions,Clouds,dailyrainin,SoftwareType,DateUTC
2013-04-06 00:00:00,26.9,17.0,30.17,WNW,302,2.0,2.0,66,0.00,,,0.00,Wunderground v.1.15,2013-04-06 04:00:00,
2013-04-06 00:05:00,26.9,17.0,30.17,WNW,282,2.0,9.0,66,0.00,,,0.00,Wunderground v.1.15,2013-04-06 04:05:00,
2013-04-06 00:10:00,26.8,17.3,30.17,WNW,282,2.0,9.0,67,0.00,,,0.00,Wunderground v.1.15,2013-04-06 04:10:00,
2013-04-06 00:15:00,26.6,17.5,30.17,WNW,282,2.0,9.0,68,0.00,,,0.00,Wunderground v.1.15,2013-04-06 04:15:00,
2013-04-06 00:20:00,26.6,17.5,30.18,West,269,3.0,3.0,68,0.00,,,0.00,Wunderground v.1.15,2013-04-06 04:20:00,
2013-04-06 00:30:00,26.7,17.6,30.18,West,269,2.0,2.0,68,0.00,,,0.00,Wunderground v.1.15,2013-04-06 04:30:00,
2013-04-06 00:35:00,26.7,17.6,30.18,West,269,1.0,3.0,68,0.00,,,0.00,Wunderground v.1.15,2013-04-06 04:35:00,
2013-04-06 00:45:00,26.5,17.7,30.19,West,273,2.0,4.0,69,0.00,,,0.00,Wunderground v.1.15,2013-04-06 04:45:00,
2013-04-06 00:50:00,26.4,17.6,30.19,West,273,2.0,2.0,69,0.00,,,0.00,Wunderground v.1.15,2013-04-06 04:50:00,
2013-04-06 00:55:00,26.4,17.3,30.19,West,271,2.0,5.0,68,0.00,,,0.00,Wunderground v.1.15,2013-04-06 04:55:00,
2013-04-06 01:00:00,26.5,17.7,30.19,West,265,3.0,9.0,69,0.00,,,0.00,Wunderground v.1.15,2013-04-06 05:00:00,
2013-04-06 01:05:00,26.4,17.6,30.20,West,265,3.0,9.0,69,0.00,,,0.00,Wunderground v.1.15,2013-04-06 05:05:00,
2013-04-06 01:15:00,26.0,17.2,30.19,West,265,2.0,9.0,69,0.00,,,0.00,Wunderground v.1.15,2013-04-06 05:15:00,
2013-04-06 01:20:00,26.0,17.6,30.20,WNW,284,2.0,9.0,70,0.00,,,0.00,Wunderground v.1.15,2013-04-06 05:20:00,
2013-04-06 01:25:00,26.0,17.2,30.20,West,277,3.0,9.0,69,0.00,,,0.00,Wunderground v.1.15,2013-04-06 05:25:00,
2013-04-06 01:35:00,26.0,17.6,30.20,West,279,4.0,9.0,70,0.00,,,0.00,Wunderground v.1.15,2013-04-06 05:35:00,
2013-04-06 01:40:00,26.0,17.6,30.21,West,263,3.0,3.0,70,0.00,,,0.00,Wunderground v.1.15,2013-04-06 05:40:00,
2013-04-06 01:50:00,25.9,17.8,30.21,West,263,2.0,2.0,71,0.00,,,0.00,Wunderground v.1.15,2013-04-06 05:50:00,
2013-04-06 01:55:00,25.9,17.8,30.21,West,263,2.0,9.0,71,0.00,,,0.00,Wunderground v.1.15,2013-04-06 05:55:00,
2013-04-06 02:00:00,25.8,17.7,30.21,West,264,2.0,9.0,71,0.00,,,0.00,Wunderground v.1.15,2013-04-06 06:00:00,
2013-04-06 02:05:00,25.7,17.6,30.21,West,269,2.0,9.0,71,0.00,,,0.00,Wunderground v.1.15,2013-04-06 06:05:00,
2013-04-06 02:10:00,25.6,17.5,30.22,WNW,287,3.0,9.0,71,0.00,,,0.00,Wunderground v.1.15,2013-04-06 06:10:00,
2013-04-06 02:20:00,25.5,17.7,30.22,West,266,3.0,3.0,72,0.00,,,0.00,Wunderground v.1.15,2013-04-06 06:20:00,
2013-04-06 02:25:00,25.6,17.8,30.22,West,266,3.0,9.0,72,0.00,,,0.00,Wunderground v.1.15,2013-04-06 06:25:00,
2013-04-06 02:35:00,25.8,18.0,30.23,West,272,2.0,9.0,72,0.00,,,0.00,Wunderground v.1.15,2013-04-06 06:35:00,
2013-04-06 02:40:00,25.8,17.7,30.23,West,272,2.0,9.0,71,0.00,,,0.00,Wunderground v.1.15,2013-04-06 06:40:00,
2013-04-06 02:45:00,25.6,17.8,30.23,WSW,255,3.0,9.0,72,0.00,,,0.00,Wunderground v.1.15,2013-04-06 06:45:00,
2013-04-06 02:55:00,25.6,17.8,30.23,WSW,256,3.0,9.0,72,0.00,,,0.00,Wunderground v.1.15,2013-04-06 06:55:00,
2013-04-06 03:00:00,25.6,18.1,30.23,WSW,256,3.0,9.0,73,0.00,,,0.00,Wunderground v.1.15,2013-04-06 07:00:00,
2013-04-06 03:05:00,25.5,18.0,30.23,WSW,256,2.0,9.0,73,0.00,,,0.00,Wunderground v.1.15,2013-04-06 07:05:00,
2013-04-06 03:10:00,25.5,18.0,30.23,West,276,2.0,9.0,73,0.00,,,0.00,Wunderground v.1.15,2013-04-06 07:10:00,
2013-04-06 03:20:00,25.5,17.7,30.23,West,262,2.0,9.0,72,0.00,,,0.00,Wunderground v.1.15,2013-04-06 07:20:00,
2013-04-06 03:25:00,25.4,17.9,30.24,West,262,2.0,9.0,73,0.00,,,0.00,Wunderground v.1.15,2013-04-06 07:25:00,
2013-04-06 03:30:00,25.3,18.2,30.24,West,262,2.0,2.0,74,0.00,,,0.00,Wunderground v.1.15,2013-04-06 07:30:00,
2013-04-06 03:40:00,25.6,18.1,30.24,WSW,238,3.0,3.0,73,0.00,,,0.00,Wunderground v.1.15,2013-04-06 07:40:00,
2013-04-06 03:45:00,25.6,18.1,30.24,WSW,241,2.0,9.0,73,0.00,,,0.00,Wunderground v.1.15,2013-04-06 07:45:00,
2013-04-06 03:50:00,25.7,17.9,30.24,WSW,244,2.0,9.0,72,0.00,,,0.00,Wunderground v.1.15,2013-04-06 07:50:00,
2013-04-06 03:55:00,25.7,18.2,30.25,WSW,254,2.0,9.0,73,0.00,,,0.00,Wunderground v.1.15,2013-04-06 07:55:00,
2013-04-06 04:05:00,25.6,18.1,30.25,SW,236,3.0,9.0,73,0.00,,,0.00,Wunderground v.1.15,2013-04-06 08:05:00,
2013-04-06 04:10:00,25.7,18.2,30.25,WSW,238,3.0,9.0,73,0.00,,,0.00,Wunderground v.1.15,2013-04-06 08:10:00,
2013-04-06 04:15:00,25.7,18.2,30.25,WSW,240,2.0,9.0,73,0.00,,,0.00,Wunderground v.1.15,2013-04-06 08:15:00,
2013-04-06 04:25:00,25.6,18.1,30.25,WSW,251,1.0,9.0,73,0.00,,,0.00,Wunderground v.1.15,2013-04-06 08:25:00,
2013-04-06 04:30:00,25.4,17.6,30.25,WSW,251,0.0,9.0,72,0.00,,,0.00,Wunderground v.1.15,2013-04-06 08:30:00,
2013-04-06 04:35:00,25.2,17.8,30.25,WSW,257,1.0,9.0,73,0.00,,,0.00,Wunderground v.1.15,2013-04-06 08:35:00,
2013-04-06 04:40:00,25.3,17.9,30.25,WNW,282,2.0,2.0,73,0.00,,,0.00,Wunderground v.1.15,2013-04-06 08:40:00,
2013-04-06 04:50:00,25.0,17.9,30.25,WNW,282,1.0,9.0,74,0.00,,,0.00,Wunderground v.1.15,2013-04-06 08:50:00,
2013-04-06 04:55:00,25.1,18.3,30.26,WNW,282,1.0,9.0,75,0.00,,,0.00,Wunderground v.1.15,2013-04-06 08:55:00,
2013-04-06 05:00:00,25.0,18.2,30.26,WNW,282,0.0,9.0,75,0.00,,,0.00,Wunderground v.1.15,2013-04-06 09:00:00,
2013-04-06 05:10:00,24.4,17.9,30.26,WNW,282,0.0,9.0,76,0.00,,,0.00,Wunderground v.1.15,2013-04-06 09:10:00,
2013-04-06 05:15:00,24.2,17.7,30.26,WNW,282,0.0,9.0,76,0.00,,,0.00,Wunderground v.1.15,2013-04-06 09:15:00,
2013-04-06 05:20:00,24.2,18.0,30.26,WNW,282,0.0,9.0,77,0.00,,,0.00,Wunderground v.1.15,2013-04-06 09:20:00,
2013-04-06 05:25:00,24.0,17.8,30.26,WNW,282,0.0,9.0,77,0.00,,,0.00,Wunderground v.1.15,2013-04-06 09:25:00,
2013-04-06 05:30:00,23.8,17.9,30.26,WNW,282,0.0,9.0,78,0.00,,,0.00,Wunderground v.1.15,2013-04-06 09:30:00,
2013-04-06 05:35:00,23.5,17.6,30.26,WNW,282,0.0,9.0,78,0.00,,,0.00,Wunderground v.1.15,2013-04-06 09:35:00,
2013-04-06 05:45:00,23.2,17.7,30.27,WNW,282,0.0,9.0,79,0.00,,,0.00,Wunderground v.1.15,2013-04-06 09:45:00,
2013-04-06 05:50:00,23.2,17.7,30.27,WNW,282,1.0,1.0,79,0.00,,,0.00,Wunderground v.1.15,2013-04-06 09:50:00,
2013-04-06 05:55:00,23.3,18.0,30.27,WNW,282,1.0,9.0,80,0.00,,,0.00,Wunderground v.1.15,2013-04-06 09:55:00,
2013-04-06 06:00:00,23.0,17.5,30.27,WNW,282,0.0,9.0,79,0.00,,,0.00,Wunderground v.1.15,2013-04-06 10:00:00,
2013-04-06 06:15:00,22.2,17.3,30.27,WNW,282,0.0,9.0,81,0.00,,,0.00,Wunderground v.1.15,2013-04-06 10:15:00,
2013-04-06 06:20:00,22.2,17.5,30.27,WNW,282,0.0,9.0,82,0.00,,,0.00,Wunderground v.1.15,2013-04-06 10:20:00,
2013-04-06 06:30:00,22.6,17.9,30.27,WNW,282,0.0,9.0,82,0.00,,,0.00,Wunderground v.1.15,2013-04-06 10:30:00,
2013-04-06 06:35:00,22.5,17.8,30.28,WNW,282,0.0,9.0,82,0.00,,,0.00,Wunderground v.1.15,2013-04-06 10:35:00,
2013-04-06 06:45:00,22.9,18.2,30.28,WNW,282,0.0,9.0,82,0.00,,,0.00,Wunderground v.1.15,2013-04-06 10:45:00,
2013-04-06 06:50:00,23.0,18.3,30.28,WNW,282,0.0,9.0,82,0.00,,,0.00,Wunderground v.1.15,2013-04-06 10:50:00,
2013-04-06 06:55:00,23.0,18.3,30.29,WNW,282,0.0,9.0,82,0.00,,,0.00,Wunderground v.1.15,2013-04-06 10:55:00,
2013-04-06 07:00:00,23.0,18.0,30.29,WNW,282,0.0,9.0,81,0.00,,,0.00,Wunderground v.1.15,2013-04-06 11:00:00,
2013-04-06 07:10:00,23.2,18.2,30.29,WNW,282,1.0,9.0,81,0.00,,,0.00,Wunderground v.1.15,2013-04-06 11:10:00,
2013-04-06 07:15:00,23.4,18.7,30.30,WNW,282,3.0,9.0,82,0.00,,,0.00,Wunderground v.1.15,2013-04-06 11:15:00,
2013-04-06 07:25:00,23.9,19.2,30.30,WNW,282,1.0,9.0,82,0.00,,,0.00,Wunderground v.1.15,2013-04-06 11:25:00,
2013-04-06 07:30:00,24.2,19.2,30.30,WNW,282,1.0,1.0,81,0.00,,,0.00,Wunderground v.1.15,2013-04-06 11:30:00,
2013-04-06 07:40:00,24.3,19.3,30.31,WNW,282,0.0,9.0,81,0.00,,,0.00,Wunderground v.1.15,2013-04-06 11:40:00,
2013-04-06 07:45:00,24.1,19.4,30.31,WNW,282,0.0,9.0,82,0.00,,,0.00,Wunderground v.1.15,2013-04-06 11:45:00,
2013-04-06 07:50:00,24.0,19.6,30.31,WNW,282,0.0,9.0,83,0.00,,,0.00,Wunderground v.1.15,2013-04-06 11:50:00,
2013-04-06 07:55:00,23.7,19.3,30.31,WNW,282,0.0,9.0,83,0.00,,,0.00,Wunderground v.1.15,2013-04-06 11:55:00,
2013-04-06 08:00:00,23.9,20.0,30.32,WNW,282,0.0,9.0,85,0.00,,,0.00,Wunderground v.1.15,2013-04-06 12:00:00,
2013-04-06 08:10:00,25.1,20.7,30.32,WNW,282,0.0,9.0,83,0.00,,,0.00,Wunderground v.1.15,2013-04-06 12:10:00,
2013-04-06 08:15:00,25.8,20.8,30.32,WNW,282,1.0,9.0,81,0.00,,,0.00,Wunderground v.1.15,2013-04-06 12:15:00,
2013-04-06 08:20:00,26.4,21.7,30.33,WNW,282,1.0,1.0,82,0.00,,,0.00,Wunderground v.1.15,2013-04-06 12:20:00,
2013-04-06 08:30:00,26.9,21.3,30.33,WNW,282,1.0,1.0,79,0.00,,,0.00,Wunderground v.1.15,2013-04-06 12:30:00,
2013-04-06 08:35:00,27.4,21.4,30.33,WNW,282,1.0,9.0,78,0.00,,,0.00,Wunderground v.1.15,2013-04-06 12:35:00,
2013-04-06 08:40:00,27.9,21.6,30.33,WNW,282,0.0,9.0,77,0.00,,,0.00,Wunderground v.1.15,2013-04-06 12:40:00,
2013-04-06 08:45:00,29.1,22.8,30.33,WNW,282,0.0,9.0,77,0.00,,,0.00,Wunderground v.1.15,2013-04-06 12:45:00,
2013-04-06 08:55:00,31.1,23.1,30.33,WNW,282,0.0,9.0,72,0.00,,,0.00,Wunderground v.1.15,2013-04-06 12:55:00,
2013-04-06 09:00:00,31.9,23.6,30.33,WNW,282,0.0,9.0,71,0.00,,,0.00,Wunderground v.1.15,2013-04-06 13:00:00,
2013-04-06 09:05:00,32.2,23.2,30.33,WNW,282,0.0,9.0,69,0.00,,,0.00,Wunderground v.1.15,2013-04-06 13:05:00,
2013-04-06 09:10:00,32.4,23.7,30.33,NE,49,0.0,9.0,70,0.00,,,0.00,Wunderground v.1.15,2013-04-06 13:10:00,
2013-04-06 09:20:00,32.0,23.7,30.33,NE,42,1.0,9.0,71,0.00,,,0.00,Wunderground v.1.15,2013-04-06 13:20:00,
2013-04-06 09:25:00,32.0,23.0,30.33,NNE,21,1.0,9.0,69,0.00,,,0.00,Wunderground v.1.15,2013-04-06 13:25:00,
2013-04-06 09:30:00,32.4,23.0,30.33,ENE,61,1.0,1.0,68,0.00,,,0.00,Wunderground v.1.15,2013-04-06 13:30:00,
2013-04-06 09:40:00,34.2,23.7,30.33,East,92,0.0,9.0,65,0.00,,,0.00,Wunderground v.1.15,2013-04-06 13:40:00,
2013-04-06 09:45:00,34.9,23.6,30.32,East,95,1.0,9.0,63,0.00,,,0.00,Wunderground v.1.15,2013-04-06 13:45:00,
2013-04-06 09:55:00,35.0,23.3,30.33,East,91,2.0,9.0,62,0.00,,,0.00,Wunderground v.1.15,2013-04-06 13:55:00,
2013-04-06 10:00:00,35.1,22.6,30.33,NE,48,2.0,2.0,60,0.00,,,0.00,Wunderground v.1.15,2013-04-06 14:00:00,
2013-04-06 10:05:00,34.8,21.9,30.33,ESE,107,2.0,3.0,59,0.00,,,0.00,Wunderground v.1.15,2013-04-06 14:05:00,
2013-04-06 10:10:00,34.9,21.2,30.33,ENE,78,2.0,2.0,57,0.00,,,0.00,Wunderground v.1.15,2013-04-06 14:10:00,
2013-04-06 10:15:00,35.1,20.5,30.33,ENE,78,1.0,9.0,55,0.00,,,0.00,Wunderground v.1.15,2013-04-06 14:15:00,
2013-04-06 10:20:00,35.3,22.0,30.33,SSW,192,0.0,9.0,58,0.00,,,0.00,Wunderground v.1.15,2013-04-06 14:20:00,
2013-04-06 10:30:00,35.5,22.2,30.33,ENE,70,2.0,9.0,58,0.00,,,0.00,Wunderground v.1.15,2013-04-06 14:30:00,
2013-04-06 10:35:00,35.5,21.3,30.33,East,87,1.0,9.0,56,0.00,,,0.00,Wunderground v.1.15,2013-04-06 14:35:00,
2013-04-06 10:40:00,36.1,23.1,30.33,East,94,2.0,9.0,59,0.00,,,0.00,Wunderground v.1.15,2013-04-06 14:40:00,
2013-04-06 10:45:00,36.5,22.3,30.33,ENE,70,3.0,9.0,56,0.00,,,0.00,Wunderground v.1.15,2013-04-06 14:45:00,
2013-04-06 10:55:00,36.7,22.9,30.33,South,190,2.0,3.0,57,0.00,,,0.00,Wunderground v.1.15,2013-04-06 14:55:00,
2013-04-06 11:00:00,37.2,24.2,30.33,SE,129,3.0,9.0,59,0.00,,,0.00,Wunderground v.1.15,2013-04-06 15:00:00,
2013-04-06 11:05:00,37.4,23.5,30.33,ESE,109,2.0,9.0,57,0.00,,,0.00,Wunderground v.1.15,2013-04-06 15:05:00,
2013-04-06 11:15:00,36.2,22.8,30.33,SE,132,4.0,6.0,58,0.00,,,0.00,Wunderground v.1.15,2013-04-06 15:15:00,
2013-04-06 11:25:00,35.2,21.5,30.33,East,80,2.0,9.0,57,0.00,,,0.00,Wunderground v.1.15,2013-04-06 15:25:00,
2013-04-06 11:30:00,36.4,23.0,30.33,East,97,2.0,9.0,58,0.00,,,0.00,Wunderground v.1.15,2013-04-06 15:30:00,